Terug naar catalogus

COSMOS 1999

ActiefMilitairPO
NORAD 19790·PAYLOAD·🇷🇺 Russia

Gelanceerd Feb 10, 1989 vanaf Plesetsk Cosmodrome

Loading…

Volgende Passages (komende 24 uur)

TLE

VersSource: Space-Track

Epoch: Sep 14, 2026, 00:49 UTC

1 19790U 89009F   26257.03463090  .00000006  00000-0 -23163-4 0  9995
2 19790  82.6131 269.9811 0019992  23.4625   4.5781 12.65752407736490

Volg COSMOS 1999 in realtime met AllMySat

Download on the App Store